| time (UTC) | temp F | wind direction | speed MPH | gust MPH | rain 1hr in | rain 24hr in | rain mn in | humidity % | barometer mb |
| 20260506073133 | 58 | 222 | 2.0 | 2.0 | 0.00 | 0.00 | 0.00 | 91 | 1006.5 |
| 20260506072633 | 59 | 222 | 3.0 | 4.0 | 0.00 | 0.00 | 0.00 | 94 | 1006.5 |
| 20260506072133 | 59 | 222 | 3.0 | 4.0 | 0.00 | 0.00 | 0.00 | 94 | 1006.5 |
| 20260506071633 | 59 | 222 | 3.0 | 4.0 | 0.00 | 0.00 | 0.00 | 93 | 1006.6 |
| 20260506071133 | 58 | 222 | 5.0 | 6.0 | 0.00 | 0.00 | 0.00 | 97 | 1006.5 |
| 20260506070633 | 58 | 222 | 7.0 | 9.0 | 0.00 | 0.00 | 0.00 | 96 | 1006.5 |
| 20260506070133 | 58 | 222 | 7.0 | 9.0 | 0.00 | 0.00 | 0.00 | 97 | 1006.4 |
| 20260506062132 | 57 | 224 | 4.0 | 8.0 | 0.00 | 0.00 | 0.00 | 10 | 1006.4 |
| 20260506061632 | 56 | 224 | 6.0 | 12.0 | 0.00 | 0.00 | 0.00 | 10 | 1006.4 |
| 20260506061132 | 56 | 224 | 6.0 | 12.0 | 0.00 | 0.00 | 0.00 | 10 | 1006.3 |
| 20260506060632 | 56 | 224 | 6.0 | 12.0 | 0.00 | 0.00 | 0.00 | 10 | 1006.3 |
| 20260506060132 | 56 | 229 | 0.0 | 2.0 | 0.00 | 0.00 | 0.00 | 10 | 1006.3 |
| 20260506051131 | 54 | 229 | 1.0 | 4.0 | 0.00 | 0.00 | 0.00 | 10 | 1006.2 |
| 20260506050631 | 54 | 229 | 2.0 | 6.0 | 0.00 | 0.00 | 0.00 | 10 | 1006.2 |
| 20260506050131 | 54 | 229 | 2.0 | 6.0 | 0.00 | 0.00 | 0.00 | 10 | 1006.2 |
| 20260506045131 | 54 | 229 | 3.0 | 9.0 | 0.00 | 0.00 | 0.00 | 10 | 1006.2 |
| 20260506044631 | 54 | 229 | 5.0 | 13.0 | 0.00 | 0.00 | 0.00 | 10 | 1006.2 |
| 20260506044131 | 54 | 229 | 5.0 | 13.0 | 0.00 | 0.00 | 0.00 | 10 | 1006.3 |
| 20260506043631 | 54 | 229 | 5.0 | 13.0 | 0.00 | 0.00 | 0.00 | 10 | 1006.4 |
| 20260506043130 | 54 | 226 | 0.0 | 2.0 | 0.00 | 0.00 | 0.00 | 10 | 1006.4 |
| 20260506042630 | 54 | 226 | 0.0 | 2.0 | 0.00 | 0.00 | 0.00 | 10 | 1006.4 |
| 20260506042130 | 54 | 226 | 0.0 | 2.0 | 0.00 | 0.00 | 0.00 | 10 | 1006.5 |
| 20260506041630 | 54 | 226 | 1.0 | 3.0 | 0.00 | 0.00 | 0.00 | 10 | 1006.4 |
| 20260506041130 | 54 | 226 | 1.0 | 3.0 | 0.00 | 0.00 | 0.00 | 10 | 1006.4 |
| 20260506040630 | 54 | 226 | 1.0 | 3.0 | 0.00 | 0.00 | 0.00 | 10 | 1006.5 |
| 20260506040130 | 54 | 226 | 2.0 | 5.0 | 0.00 | 0.00 | 0.00 | 10 | 1006.5 |
| 20260506035630 | 54 | 226 | 2.0 | 5.0 | 0.00 | 0.00 | 0.00 | 10 | 1006.5 |
| 20260506035130 | 54 | 226 | 2.0 | 5.0 | 0.00 | 0.00 | 0.00 | 10 | 1006.6 |
| 20260506034630 | 54 | 226 | 4.0 | 8.0 | 0.00 | 0.00 | 0.00 | 10 | 1006.5 |
| 20260506034130 | 54 | 226 | 4.0 | 8.0 | 0.00 | 0.00 | 0.00 | 10 | 1006.5 |
| 20260506033630 | 54 | 226 | 4.0 | 8.0 | 0.00 | 0.00 | 0.00 | 10 | 1006.5 |
| 20260506033130 | 54 | 226 | 6.0 | 12.0 | 0.00 | 0.00 | 0.00 | 10 | 1006.5 |
| 20260506032630 | 54 | 226 | 6.0 | 12.0 | 0.00 | 0.00 | 0.00 | 10 | 1006.6 |
| 20260506032129 | 54 | 226 | 6.0 | 12.0 | 0.00 | 0.00 | 0.00 | 10 | 1006.6 |
| 20260506031629 | 54 | 222 | 0.0 | 2.0 | 0.00 | 0.00 | 0.00 | 10 | 1006.7 |
| 20260506031129 | 54 | 222 | 0.0 | 2.0 | 0.00 | 0.00 | 0.00 | 10 | 1006.6 |
| 20260506030629 | 53 | 222 | 0.0 | 2.0 | 0.00 | 0.00 | 0.00 | 10 | 1006.7 |
| 20260506030129 | 53 | 222 | 1.0 | 3.0 | 0.00 | 0.00 | 0.00 | 10 | 1006.6 |
| 20260506025629 | 53 | 222 | 1.0 | 3.0 | 0.00 | 0.00 | 0.00 | 10 | 1006.6 |
| 20260506025129 | 53 | 222 | 1.0 | 3.0 | 0.00 | 0.00 | 0.00 | 10 | 1006.6 |
| 20260506024629 | 53 | 222 | 2.0 | 5.0 | 0.00 | 0.00 | 0.00 | 10 | 1006.6 |
| 20260506024129 | 53 | 222 | 2.0 | 5.0 | 0.00 | 0.00 | 0.00 | 10 | 1006.5 |
| 20260506023629 | 53 | 222 | 2.0 | 5.0 | 0.00 | 0.00 | 0.00 | 10 | 1006.5 |
| 20260506023129 | 54 | 222 | 3.0 | 7.0 | 0.00 | 0.00 | 0.00 | 10 | 1006.6 |
| 20260506022629 | 54 | 222 | 3.0 | 7.0 | 0.00 | 0.00 | 0.00 | 10 | 1006.6 |
| 20260506022129 | 54 | 222 | 3.0 | 7.0 | 0.00 | 0.00 | 0.00 | 10 | 1006.6 |
| 20260506021628 | 54 | 222 | 5.0 | 11.0 | 0.00 | 0.00 | 0.00 | 10 | 1006.6 |
| 20260506021128 | 54 | 222 | 5.0 | 11.0 | 0.00 | 0.00 | 0.00 | 10 | 1006.6 |
| 20260506020628 | 54 | 211 | 0.0 | 3.0 | 0.00 | 0.00 | 0.00 | 10 | 1006.7 |
| 20260506020128 | 55 | 211 | 0.0 | 3.0 | 0.00 | 0.00 | 0.00 | 10 | 1006.6 |
| 20260506015628 | 55 | 211 | 1.0 | 5.0 | 0.00 | 0.00 | 0.00 | 10 | 1006.6 |
| 20260506015128 | 55 | 211 | 1.0 | 5.0 | 0.00 | 0.00 | 0.00 | 10 | 1006.7 |
| 20260506014628 | 55 | 211 | 2.0 | 7.0 | 0.00 | 0.00 | 0.00 | 10 | 1006.7 |
| 20260506014128 | 55 | 211 | 2.0 | 7.0 | 0.00 | 0.00 | 0.00 | 10 | 1006.8 |
| 20260506013628 | 55 | 211 | 2.0 | 7.0 | 0.00 | 0.00 | 0.00 | 10 | 1006.9 |
| 20260506013128 | 55 | 211 | 4.0 | 10.0 | 0.00 | 0.00 | 0.00 | 10 | 1007.0 |
| 20260506012628 | 55 | 211 | 4.0 | 10.0 | 0.00 | 0.00 | 0.00 | 10 | 1007.0 |
| 20260506012128 | 55 | 211 | 4.0 | 10.0 | 0.00 | 0.00 | 0.00 | 10 | 1007.0 |
| 20260506011628 | 54 | 209 | 0.0 | 2.0 | 0.00 | 0.00 | 0.00 | 10 | 1007.0 |
| 20260506011128 | 54 | 209 | 1.0 | 4.0 | 0.00 | 0.00 | 0.00 | 10 | 1007.1 |
| 20260506010628 | 54 | 209 | 1.0 | 4.0 | 0.00 | 0.00 | 0.00 | 10 | 1007.1 |
| 20260506010128 | 54 | 209 | 1.0 | 4.0 | 0.00 | 0.00 | 0.00 | 10 | 1007.1 |
| 20260506005628 | 54 | 209 | 2.0 | 6.0 | 0.00 | 0.00 | 0.00 | 10 | 1007.1 |
| 20260506005127 | 54 | 209 | 3.0 | 9.0 | 0.00 | 0.00 | 0.00 | 10 | 1007.1 |
| 20260506004627 | 54 | 209 | 3.0 | 9.0 | 0.00 | 0.00 | 0.00 | 10 | 1007.1 |
| 20260506004127 | 54 | 209 | 3.0 | 9.0 | 0.00 | 0.00 | 0.00 | 10 | 1007.0 |
| 20260506003627 | 54 | 204 | 0.0 | 1.0 | 0.00 | 0.00 | 0.00 | 10 | 1007.0 |
| 20260506003127 | 54 | 204 | 1.0 | 2.0 | 0.00 | 0.00 | 0.00 | 10 | 1007.0 |
| 20260506002627 | 54 | 204 | 2.0 | 3.0 | 0.00 | 0.00 | 0.00 | 10 | 1007.1 |
| 20260506002127 | 54 | 204 | 2.0 | 3.0 | 0.00 | 0.00 | 0.00 | 10 | 1007.1 |
| 20260506001627 | 54 | 204 | 2.0 | 3.0 | 0.00 | 0.00 | 0.00 | 10 | 1007.1 |
| 20260506001127 | 55 | 204 | 3.0 | 5.0 | 0.00 | 0.00 | 0.00 | 10 | 1007.1 |
| 20260506000627 | 55 | 204 | 3.0 | 5.0 | 0.00 | 0.00 | 0.00 | 10 | 1007.1 |
| 20260506000127 | 55 | 204 | 3.0 | 5.0 | 0.00 | 0.00 | 0.00 | 10 | 1007.1 |
| 20260505235627 | 55 | 204 | 0.0 | 1.0 | 0.00 | 0.00 | 0.00 | 10 | 1007.2 |
| 20260505235127 | 55 | 204 | 0.0 | 1.0 | 0.00 | 0.00 | 0.00 | 10 | 1007.2 |
| 20260505234626 | 55 | 204 | 0.0 | 1.0 | 0.00 | 0.00 | 0.00 | 10 | 1007.3 |
| 20260505234126 | 56 | 204 | 1.0 | 2.0 | 0.00 | 0.00 | 0.00 | 10 | 1007.3 |
| 20260505233626 | 56 | 204 | 1.0 | 2.0 | 0.00 | 0.00 | 0.00 | 10 | 1007.3 |
| 20260505233126 | 56 | 204 | 1.0 | 2.0 | 0.00 | 0.00 | 0.00 | 10 | 1007.3 |
| 20260505232626 | 56 | 204 | 2.0 | 3.0 | 0.00 | 0.00 | 0.00 | 10 | 1007.3 |
| 20260505232126 | 56 | 204 | 0.0 | 1.0 | 0.00 | 0.00 | 0.00 | 10 | 1007.3 |
| 20260505231626 | 56 | 204 | 0.0 | 1.0 | 0.00 | 0.00 | 0.00 | 10 | 1007.4 |
| 20260505231126 | 56 | 204 | 1.0 | 2.0 | 0.00 | 0.00 | 0.00 | 10 | 1007.4 |
| 20260505230626 | 57 | 204 | 1.0 | 2.0 | 0.00 | 0.00 | 0.00 | 10 | 1007.4 |
| 20260505230126 | 57 | 204 | 1.0 | 2.0 | 0.00 | 0.00 | 0.00 | 10 | 1007.4 |
| 20260505225626 | 57 | 204 | 2.0 | 3.0 | 0.00 | 0.00 | 0.00 | 10 | 1007.4 |
| 20260505225126 | 57 | 204 | 2.0 | 3.0 | 0.00 | 0.00 | 0.00 | 10 | 1007.4 |
| 20260505224626 | 57 | 204 | 2.0 | 3.0 | 0.00 | 0.00 | 0.00 | 10 | 1007.4 |
| 20260505224125 | 57 | 211 | 0.0 | 0.0 | 0.00 | 0.00 | 0.00 | 10 | 1007.4 |
| 20260505223625 | 58 | 211 | 0.0 | 0.0 | 0.00 | 0.00 | 0.00 | 10 | 1007.4 |
| 20260505223125 | 58 | 211 | 1.0 | 0.0 | 0.00 | 0.00 | 0.00 | 10 | 1007.5 |
| 20260505222625 | 58 | 211 | 1.0 | 0.0 | 0.00 | 0.00 | 0.00 | 10 | 1007.5 |
| 20260505222125 | 58 | 211 | 1.0 | 0.0 | 0.00 | 0.00 | 0.00 | 10 | 1007.5 |
| 20260505221625 | 58 | 211 | 2.0 | 1.0 | 0.00 | 0.00 | 0.00 | 10 | 1007.5 |
| 20260505221125 | 58 | 211 | 0.0 | 0.0 | 0.00 | 0.00 | 0.00 | 10 | 1007.5 |
| 20260505220625 | 58 | 211 | 0.0 | 0.0 | 0.00 | 0.00 | 0.00 | 10 | 1007.5 |
| 20260505220125 | 58 | 211 | 0.0 | 0.0 | 0.00 | 0.00 | 0.00 | 10 | 1007.6 |
| 20260505215625 | 58 | 211 | 1.0 | 0.0 | 0.00 | 0.00 | 0.00 | 10 | 1007.6 |
| 20260505215125 | 58 | 211 | 1.0 | 0.0 | 0.00 | 0.00 | 0.00 | 10 | 1007.6 |
| 20260505214625 | 58 | 211 | 2.0 | 1.0 | 0.00 | 0.00 | 0.00 | 10 | 1007.6 |
| 20260505214125 | 58 | 211 | 2.0 | 1.0 | 0.00 | 0.00 | 0.00 | 10 | 1007.7 |
| 20260505213624 | 58 | 211 | 2.0 | 1.0 | 0.00 | 0.00 | 0.00 | 10 | 1007.7 |
| 20260505213125 | 58 | 231 | 0.0 | 0.0 | 0.00 | 0.00 | 0.00 | 10 | 1007.6 |
| 20260505212624 | 58 | 231 | 0.0 | 0.0 | 0.00 | 0.00 | 0.00 | 10 | 1007.7 |
| 20260505212124 | 58 | 231 | 1.0 | 1.0 | 0.00 | 0.00 | 0.00 | 10 | 1007.7 |
| 20260505211624 | 58 | 231 | 1.0 | 1.0 | 0.00 | 0.00 | 0.00 | 10 | 1007.7 |
| 20260505211124 | 59 | 231 | 1.0 | 1.0 | 0.00 | 0.00 | 0.00 | 10 | 1007.8 |
| 20260505210624 | 58 | 231 | 2.0 | 2.0 | 0.00 | 0.00 | 0.00 | 10 | 1007.8 |
| 20260505210124 | 58 | 231 | 0.0 | 0.0 | 0.00 | 0.00 | 0.00 | 10 | 1007.8 |
| 20260505205624 | 58 | 231 | 1.0 | 1.0 | 0.00 | 0.00 | 0.00 | 10 | 1007.8 |
| 20260505205124 | 58 | 231 | 1.0 | 1.0 | 0.00 | 0.00 | 0.00 | 10 | 1007.8 |
| 20260505204624 | 58 | 231 | 1.0 | 1.0 | 0.00 | 0.00 | 0.00 | 10 | 1007.8 |
| 20260505204124 | 58 | 231 | 2.0 | 2.0 | 0.00 | 0.00 | 0.00 | 10 | 1007.8 |
| 20260505203624 | 58 | 236 | 0.0 | 1.0 | 0.00 | 0.00 | 0.00 | 10 | 1007.8 |
| 20260505203124 | 59 | 236 | 0.0 | 1.0 | 0.00 | 0.00 | 0.00 | 10 | 1007.9 |
| 20260505202624 | 59 | 236 | 0.0 | 1.0 | 0.00 | 0.00 | 0.00 | 10 | 1007.9 |
| 20260505202124 | 59 | 236 | 1.0 | 2.0 | 0.00 | 0.00 | 0.00 | 10 | 1007.9 |
| 20260505201624 | 59 | 236 | 1.0 | 2.0 | 0.00 | 0.00 | 0.00 | 10 | 1007.9 |
| 20260505201123 | 59 | 236 | 2.0 | 3.0 | 0.00 | 0.00 | 0.00 | 10 | 1007.9 |
| 20260505200623 | 59 | 236 | 2.0 | 3.0 | 0.00 | 0.00 | 0.00 | 10 | 1007.9 |
| 20260505200123 | 59 | 236 | 0.0 | 1.0 | 0.00 | 0.00 | 0.00 | 10 | 1007.9 |
| 20260505195623 | 59 | 236 | 0.0 | 1.0 | 0.00 | 0.00 | 0.00 | 10 | 1007.9 |
| 20260505195122 | 59 | 236 | 0.0 | 1.0 | 0.00 | 0.00 | 0.00 | 10 | 1007.9 |
| 20260505194622 | 59 | 236 | 1.0 | 2.0 | 0.00 | 0.00 | 0.00 | 10 | 1007.9 |
| 20260505194122 | 59 | 236 | 1.0 | 2.0 | 0.00 | 0.00 | 0.00 | 10 | 1007.9 |
| 20260505193622 | 59 | 236 | 2.0 | 3.0 | 0.00 | 0.00 | 0.00 | 10 | 1007.8 |
| 20260505193122 | 59 | 245 | 0.0 | 1.0 | 0.00 | 0.00 | 0.00 | 10 | 1007.8 |
| 20260505192622 | 59 | 245 | 0.0 | 1.0 | 0.00 | 0.00 | 0.00 | 10 | 1007.8 |
| 20260505192122 | 59 | 245 | 0.0 | 1.0 | 0.00 | 0.00 | 0.00 | 10 | 1007.7 |
| 20260505191622 | 59 | 245 | 1.0 | 2.0 | 0.00 | 0.00 | 0.00 | 10 | 1007.7 |
| 20260505191122 | 59 | 245 | 1.0 | 2.0 | 0.00 | 0.00 | 0.00 | 10 | 1007.7 |
| 20260505190622 | 59 | 245 | 1.0 | 2.0 | 0.00 | 0.00 | 0.00 | 10 | 1007.7 |
| 20260505190121 | 59 | 245 | 0.0 | 1.0 | 0.00 | 0.00 | 0.00 | 10 | 1007.6 |
| 20260505185622 | 59 | 245 | 1.0 | 2.0 | 0.00 | 0.00 | 0.00 | 10 | 1007.7 |
| 20260505185121 | 59 | 227 | 0.0 | 1.0 | 0.00 | 0.00 | 0.00 | 10 | 1007.7 |
| 20260505184621 | 60 | 227 | 0.0 | 1.0 | 0.00 | 0.00 | 0.00 | 10 | 1007.6 |
| 20260505184121 | 60 | 227 | 0.0 | 1.0 | 0.00 | 0.00 | 0.00 | 10 | 1007.6 |
| 20260505183621 | 60 | 227 | 1.0 | 2.0 | 0.00 | 0.00 | 0.00 | 10 | 1007.6 |
| 20260505183121 | 60 | 227 | 2.0 | 4.0 | 0.00 | 0.00 | 0.00 | 10 | 1007.6 |
| 20260505182621 | 60 | 227 | 2.0 | 4.0 | 0.00 | 0.00 | 0.00 | 10 | 1007.6 |
| 20260505182121 | 60 | 227 | 2.0 | 4.0 | 0.00 | 0.00 | 0.00 | 10 | 1007.6 |
| 20260505181621 | 60 | 227 | 3.0 | 6.0 | 0.00 | 0.00 | 0.00 | 10 | 1007.7 |
| 20260505181121 | 60 | 227 | 3.0 | 6.0 | 0.00 | 0.00 | 0.00 | 10 | 1007.7 |
| 20260505180621 | 60 | 227 | 3.0 | 6.0 | 0.00 | 0.00 | 0.00 | 10 | 1007.7 |
| 20260505180121 | 61 | 227 | 3.0 | 6.0 | 0.00 | 0.00 | 0.00 | 10 | 1007.7 |
| 20260505175621 | 61 | 227 | 3.0 | 6.0 | 0.00 | 0.00 | 0.00 | 10 | 1007.7 |
| 20260505175121 | 61 | 227 | 3.0 | 6.0 | 0.00 | 0.00 | 0.00 | 10 | 1007.7 |
| 20260505174620 | 61 | 227 | 3.0 | 6.0 | 0.00 | 0.00 | 0.00 | 10 | 1007.7 |
| 20260505174120 | 61 | 227 | 3.0 | 6.0 | 0.00 | 0.00 | 0.00 | 10 | 1007.6 |
| 20260505173620 | 61 | 251 | 4.0 | 8.0 | 0.00 | 0.00 | 0.00 | 10 | 1007.6 |
| 20260505173120 | 61 | 251 | 4.0 | 8.0 | 0.00 | 0.00 | 0.00 | 10 | 1007.7 |
| 20260505172628 | 61 | 251 | 4.0 | 8.0 | 0.00 | 0.00 | 0.00 | 10 | 1007.8 |
| 20260505172120 | 61 | 251 | 4.0 | 8.0 | 0.00 | 0.00 | 0.00 | 10 | 1007.8 |
| 20260505171620 | 61 | 251 | 4.0 | 8.0 | 0.00 | 0.00 | 0.00 | 10 | 1007.7 |
| 20260505171120 | 61 | 251 | 4.0 | 8.0 | 0.00 | 0.00 | 0.00 | 10 | 1007.8 |
| 20260505170620 | 61 | 251 | 4.0 | 8.0 | 0.00 | 0.00 | 0.00 | 10 | 1007.8 |
| 20260505170120 | 61 | 251 | 4.0 | 8.0 | 0.00 | 0.00 | 0.00 | 10 | 1007.8 |
| 20260505165620 | 62 | 251 | 4.0 | 8.0 | 0.00 | 0.00 | 0.00 | 10 | 1007.8 |
| 20260505165120 | 62 | 251 | 4.0 | 8.0 | 0.00 | 0.00 | 0.00 | 10 | 1007.8 |
| 20260505164620 | 62 | 251 | 4.0 | 8.0 | 0.00 | 0.00 | 0.00 | 10 | 1007.9 |
| 20260505164120 | 62 | 251 | 4.0 | 8.0 | 0.00 | 0.00 | 0.00 | 99 | 1007.9 |
| 20260505163619 | 62 | 240 | 4.0 | 9.0 | 0.00 | 0.00 | 0.00 | 10 | 1007.9 |
| 20260505163119 | 62 | 240 | 4.0 | 9.0 | 0.00 | 0.00 | 0.00 | 10 | 1007.9 |
| 20260505162619 | 62 | 240 | 4.0 | 9.0 | 0.00 | 0.00 | 0.00 | 10 | 1007.9 |
| 20260505162119 | 62 | 240 | 4.0 | 9.0 | 0.00 | 0.00 | 0.00 | 10 | 1007.9 |
| 20260505161619 | 62 | 240 | 4.0 | 9.0 | 0.00 | 0.00 | 0.00 | 10 | 1007.9 |
| 20260505161119 | 62 | 240 | 4.0 | 9.0 | 0.00 | 0.00 | 0.00 | 10 | 1007.9 |
| 20260505160619 | 63 | 240 | 4.0 | 9.0 | 0.00 | 0.00 | 0.00 | 10 | 1008.0 |
| 20260505160119 | 63 | 240 | 4.0 | 9.0 | 0.00 | 0.00 | 0.00 | 10 | 1008.0 |
| 20260505153119 | 62 | 240 | 4.0 | 9.0 | 0.00 | 0.00 | 0.00 | 10 | 1008.3 |
| 20260505152618 | 62 | 236 | 3.0 | 7.0 | 0.00 | 0.00 | 0.00 | 10 | 1008.3 |
| 20260505152118 | 62 | 236 | 3.0 | 7.0 | 0.00 | 0.00 | 0.00 | 10 | 1008.3 |
| 20260505151618 | 62 | 236 | 3.0 | 7.0 | 0.00 | 0.00 | 0.00 | 99 | 1008.4 |
| 20260505151118 | 62 | 236 | 3.0 | 7.0 | 0.00 | 0.00 | 0.00 | 10 | 1008.4 |
| 20260505150618 | 62 | 236 | 3.0 | 7.0 | 0.00 | 0.00 | 0.00 | 98 | 1008.3 |
| 20260505150118 | 62 | 236 | 3.0 | 7.0 | 0.00 | 0.00 | 0.00 | 98 | 1008.3 |
| 20260505140617 | 63 | 244 | 4.0 | 7.0 | 0.00 | 0.00 | 0.00 | 10 | 1008.5 |
| 20260505140117 | 63 | 244 | 4.0 | 7.0 | 0.00 | 0.00 | 0.00 | 10 | 1008.5 |
| 20260505130116 | 66 | 251 | 3.0 | 6.0 | 0.00 | 0.00 | 0.00 | 77 | 1008.6 |
| 20260505124616 | 67 | 251 | 3.0 | 6.0 | 0.00 | 0.00 | 0.00 | 78 | 1008.6 |
| 20260505124116 | 67 | 251 | 3.0 | 6.0 | 0.00 | 0.00 | 0.00 | 75 | 1008.6 |
| 20260505123616 | 67 | 224 | 1.0 | 3.0 | 0.00 | 0.00 | 0.00 | 76 | 1008.6 |
| 20260505123116 | 67 | 224 | 1.0 | 3.0 | 0.00 | 0.00 | 0.00 | 79 | 1008.7 |
| 20260505122616 | 66 | 224 | 1.0 | 3.0 | 0.00 | 0.00 | 0.00 | 81 | 1008.6 |
| 20260505122116 | 66 | 224 | 2.0 | 5.0 | 0.00 | 0.00 | 0.00 | 82 | 1008.7 |
| 20260505121616 | 66 | 224 | 4.0 | 7.0 | 0.00 | 0.00 | 0.00 | 80 | 1008.7 |
| 20260505121116 | 66 | 224 | 4.0 | 7.0 | 0.00 | 0.00 | 0.00 | 76 | 1008.7 |
| 20260505120616 | 66 | 224 | 4.0 | 7.0 | 0.00 | 0.00 | 0.00 | 76 | 1008.8 |
| 20260505120115 | 67 | 240 | 0.0 | 0.0 | 0.00 | 0.00 | 0.00 | 71 | 1008.7 |
| 20260505115615 | 66 | 240 | 0.0 | 0.0 | 0.00 | 0.00 | 0.00 | 68 | 1008.8 |
| 20260505115115 | 66 | 240 | 1.0 | 1.0 | 0.00 | 0.00 | 0.00 | 69 | 1008.8 |
| 20260505114615 | 66 | 240 | 1.0 | 1.0 | 0.00 | 0.00 | 0.00 | 71 | 1008.8 |
| 20260505114115 | 66 | 240 | 1.0 | 1.0 | 0.00 | 0.00 | 0.00 | 71 | 1008.8 |
| 20260505113615 | 66 | 240 | 2.0 | 2.0 | 0.00 | 0.00 | 0.00 | 71 | 1008.8 |
| 20260505113115 | 66 | 240 | 2.0 | 2.0 | 0.00 | 0.00 | 0.00 | 67 | 1008.9 |
| 20260505112615 | 67 | 240 | 2.0 | 2.0 | 0.00 | 0.00 | 0.00 | 61 | 1008.8 |
| 20260505112115 | 67 | 240 | 3.0 | 3.0 | 0.00 | 0.00 | 0.00 | 58 | 1008.9 |
| 20260505111615 | 67 | 240 | 5.0 | 5.0 | 0.00 | 0.00 | 0.00 | 56 | 1008.9 |
| 20260505111115 | 68 | 240 | 5.0 | 5.0 | 0.00 | 0.00 | 0.00 | 56 | 1009.0 |
| 20260505110615 | 68 | 240 | 5.0 | 5.0 | 0.00 | 0.00 | 0.00 | 55 | 1008.9 |
| 20260505110115 | 68 | 240 | 5.0 | 5.0 | 0.00 | 0.00 | 0.00 | 56 | 1009.0 |
| 20260505102114 | 69 | 243 | 3.0 | 4.0 | 0.00 | 0.00 | 0.00 | 52 | 1009.3 |
| 20260505101614 | 69 | 243 | 3.0 | 4.0 | 0.00 | 0.00 | 0.00 | 55 | 1009.3 |
| 20260505101114 | 69 | 243 | 3.0 | 4.0 | 0.00 | 0.00 | 0.00 | 56 | 1009.3 |
| 20260505100614 | 68 | 243 | 3.0 | 4.0 | 0.00 | 0.00 | 0.00 | 57 | 1009.3 |
| 20260505100114 | 68 | 243 | 3.0 | 4.0 | 0.00 | 0.00 | 0.00 | 57 | 1009.3 |
| 20260505095614 | 70 | 243 | 3.0 | 4.0 | 0.00 | 0.00 | 0.00 | 55 | 1009.3 |
| 20260505095114 | 70 | 243 | 3.0 | 4.0 | 0.00 | 0.00 | 0.00 | 53 | 1009.3 |
| 20260505094613 | 70 | 243 | 3.0 | 4.0 | 0.00 | 0.00 | 0.00 | 53 | 1009.4 |
| 20260505094113 | 70 | 243 | 3.0 | 4.0 | 0.00 | 0.00 | 0.00 | 54 | 1009.4 |
| 20260505093613 | 69 | 238 | 2.0 | 3.0 | 0.00 | 0.00 | 0.00 | 58 | 1009.4 |
| 20260505093113 | 68 | 238 | 2.0 | 3.0 | 0.00 | 0.00 | 0.00 | 62 | 1009.4 |
| 20260505092613 | 67 | 238 | 2.0 | 3.0 | 0.00 | 0.00 | 0.00 | 60 | 1009.5 |
| 20260505092113 | 67 | 238 | 2.0 | 3.0 | 0.00 | 0.00 | 0.00 | 61 | 1009.5 |
| 20260505091613 | 67 | 238 | 2.0 | 3.0 | 0.00 | 0.00 | 0.00 | 63 | 1009.5 |
| 20260505091113 | 66 | 238 | 2.0 | 3.0 | 0.00 | 0.00 | 0.00 | 64 | 1009.6 |
| 20260505090613 | 66 | 238 | 2.0 | 3.0 | 0.00 | 0.00 | 0.00 | 65 | 1009.6 |
| 20260505090113 | 66 | 238 | 0.0 | 1.0 | 0.00 | 0.00 | 0.00 | 66 | 1009.6 |
| 20260505085613 | 66 | 238 | 0.0 | 1.0 | 0.00 | 0.00 | 0.00 | 70 | 1009.6 |
| 20260505085113 | 66 | 238 | 1.0 | 2.0 | 0.00 | 0.00 | 0.00 | 67 | 1009.7 |
| 20260505084613 | 66 | 238 | 1.0 | 2.0 | 0.00 | 0.00 | 0.00 | 67 | 1009.7 |
| 20260505084113 | 65 | 238 | 1.0 | 2.0 | 0.00 | 0.00 | 0.00 | 68 | 1009.7 |
| 20260505083612 | 66 | 238 | 2.0 | 3.0 | 0.00 | 0.00 | 0.00 | 68 | 1009.8 |
| 20260505083112 | 65 | 238 | 2.0 | 3.0 | 0.00 | 0.00 | 0.00 | 68 | 1009.8 |
| 20260505082612 | 66 | 245 | 1.0 | 2.0 | 0.00 | 0.00 | 0.00 | 67 | 1009.9 |
| 20260505082112 | 67 | 245 | 1.0 | 2.0 | 0.00 | 0.00 | 0.00 | 63 | 1009.9 |
| 20260505081612 | 68 | 245 | 1.0 | 2.0 | 0.00 | 0.00 | 0.00 | 62 | 1009.9 |
| 20260505081112 | 67 | 245 | 1.0 | 2.0 | 0.00 | 0.00 | 0.00 | 64 | 1010.0 |
| 20260505080612 | 66 | 245 | 1.0 | 2.0 | 0.00 | 0.00 | 0.00 | 67 | 1010.0 |
| 20260505080112 | 66 | 245 | 0.0 | 1.0 | 0.00 | 0.00 | 0.00 | 66 | 1010.0 |